Find Starlink 31428

NORAD ID: 59367 Int'l Des: 2024-060 Owner: SPXS Country: US Constellation: starlink operational
LEOCIRCULAR

Live Position

Loading 3D Globe...

About Starlink 31428

Description loading...

Upcoming Passes

Passes for default location (London). Set your location on the main map for personalized predictions.

Altitude History

Loading altitude history...

Two-Line Element Set

1 59367U 24060V 26110.13604223 -.00001549 00000-0 -46806-4 0 9992
2 59367 43.0023 25.6033 0001209 267.5219 92.5494 15.27570743116403
Epoch: Apr 20, 2026 • Age: 12 hours

Current Status

Altitude 485.6 km
Velocity 7.62 km/s
Sub-Earth Point -14.78°S, 78.27°W
Launch Date Mar 31, 2024
Age 2 years
Type internet

Technical Details

Classification Payload
Mass 730.00 kg
Dry Mass 700.00 kg
Total Mass 730.00 kg
Length 0.30 m
Diameter 4.10 m
Span 29.00 m
Shape Box + pan
Manufacturer SPXS
Bus Type Starlink V2M
Phase Status In Orbit
Owner/State SPXS/US

Most Searched